Change the Weather History Date:

Monday, September 16, 2013

  Actual Average Record
Temperature  
Mean Temperature 48 °F -  
Max Temperature 55 °F 58 °F 75 °F (1996)
Min Temperature 41 °F 45 °F 39 °F (1996)
Degree Days  
Heating Degree Days 17    
Moisture  
Dew Point 41 °F    
Average Humidity 79    
Maximum Humidity 93    
Minimum Humidity 63    
Precipitation  
Precipitation 0.00 in 0.09 in - ()
Sea Level Pressure  
Sea Level Pressure 29.28 in    
Wind  
Wind Speed 13 mph ()    
Max Wind Speed 21 mph    
Max Gust Speed 31 mph    
Visibility 6.2 miles    
Events      
Averages and records for this station are not official NWS values.
T = Trace of Precipitation, MM = Missing Value Source: Averaged Metar Reports

Daily Weather History Graph

Daily Weather History Graph

Search for Another Location

Airport or City:

Trip Planner

Search our weather history database for the weather conditions in past years. The results will help you decide how hot, cold, wet, or windy it might be!

Date:

Astronomy

Sep. 16, 2013 Rise Set
Actual Time 6:47 AM BST 7:28 PM BST
Civil Twilight 6:09 AM BST 8:05 PM BST
Nautical Twilight 5:24 AM BST 8:50 PM BST
Astronomical Twilight 4:35 AM BST 9:39 PM BST
Moon 5:49 PM BST (9/16) 2:47 AM BST (9/16)
Length of Visible Light 13h 55m
Length of Day
12h 40m
Waxing Gibbous, 88% of the Moon is Illuminated
Sep 16
Waxing Gibbous
Sep 19
Full
Sep 27
Last Quarter
Oct 5
New
Oct 12
First Quarter

Hourly Weather History & Observations

Time (BST) Temp. Windchill Dew Point Humidity Pressure Visibility Wind Dir Wind Speed Gust Speed Precip Events Conditions
12:20 AM 42.8 °F 35.8 °F 39.2 °F 87% 29.27 in - WSW 13.8 mph - N/A   Clear
12:50 AM 42.8 °F 36.2 °F 39.2 °F 87% 29.27 in 6.2 mi WSW 12.7 mph - N/A   Scattered Clouds
1:20 AM 42.8 °F 35.4 °F 39.2 °F 87% 29.27 in 6.2 mi WSW 15.0 mph - N/A   Partly Cloudy
1:50 AM 42.8 °F 37.5 °F 39.2 °F 87% 29.27 in 6.2 mi WSW 9.2 mph - N/A   Mostly Cloudy
2:20 AM 41.0 °F 33.1 °F 39.2 °F 93% 29.27 in 6.2 mi WSW 15.0 mph - N/A   Partly Cloudy
2:50 AM 42.8 °F 35.4 °F 39.2 °F 87% 29.27 in - WSW 15.0 mph - N/A   Clear
3:20 AM 41.0 °F 33.9 °F 39.2 °F 93% 29.27 in 6.2 mi WSW 12.7 mph - N/A   Unknown
3:50 AM 41.0 °F 34.7 °F 37.4 °F 87% 29.27 in - WSW 10.4 mph - N/A   Clear
4:20 AM 41.0 °F 33.9 °F 37.4 °F 87% 29.27 in 6.2 mi WSW 12.7 mph - N/A   Unknown
4:50 AM 41.0 °F 36.4 °F 37.4 °F 87% 29.27 in - WSW 6.9 mph - N/A   Clear
5:20 AM 41.0 °F 35.8 °F 37.4 °F 87% 29.27 in 6.2 mi WSW 8.1 mph - N/A   Unknown
5:50 AM 41.0 °F 33.1 °F 39.2 °F 93% 29.27 in - WSW 15.0 mph - N/A   Clear
6:20 AM 42.8 °F 36.2 °F 37.4 °F 81% 29.27 in - WSW 12.7 mph - N/A   Clear
6:50 AM 42.8 °F 36.2 °F 39.2 °F 87% 29.27 in 6.2 mi WSW 12.7 mph - N/A   Unknown
7:20 AM 42.8 °F 36.2 °F 39.2 °F 87% 29.27 in 6.2 mi WSW 12.7 mph - N/A   Partly Cloudy
7:50 AM 44.6 °F 38.1 °F 41.0 °F 87% 29.27 in 6.2 mi SW 13.8 mph - N/A   Partly Cloudy
8:20 AM 44.6 °F 37.4 °F 39.2 °F 81% 29.27 in 6.2 mi SW 16.1 mph - N/A   Partly Cloudy
8:50 AM 46.4 °F 39.8 °F 41.0 °F 81% 29.27 in 6.2 mi WSW 16.1 mph - N/A   Partly Cloudy
9:20 AM 46.4 °F 39.8 °F 41.0 °F 81% 29.27 in 6.2 mi WSW 16.1 mph - N/A   Scattered Clouds
9:50 AM 46.4 °F 39.5 °F 42.8 °F 87% 29.27 in 6.2 mi WSW 17.3 mph - N/A   Partly Cloudy
10:20 AM 48.2 °F - 42.8 °F 82% 29.27 in 6.2 mi WSW 16.1 mph - N/A   Partly Cloudy
10:50 AM 50.0 °F - 42.8 °F 76% 29.27 in 6.2 mi WSW 16.1 mph - N/A   Scattered Clouds
11:20 AM 50.0 °F - 42.8 °F 76% 29.27 in 6.2 mi WSW 17.3 mph - N/A   Scattered Clouds
11:50 AM 51.8 °F - 44.6 °F 76% 29.27 in 6.2 mi WSW 17.3 mph - N/A   Scattered Clouds
12:20 PM 53.6 °F - 42.8 °F 67% 29.27 in 6.2 mi West 19.6 mph 31.1 mph N/A   Scattered Clouds
12:50 PM 51.8 °F - 42.8 °F 71% 29.27 in 6.2 mi West 17.3 mph - N/A   Scattered Clouds
1:20 PM 53.6 °F - 44.6 °F 72% 29.27 in 6.2 mi West 17.3 mph - N/A   Scattered Clouds
1:50 PM 53.6 °F - 42.8 °F 67% 29.27 in 6.2 mi West 18.4 mph - N/A   Mostly Cloudy
2:20 PM 53.6 °F - 44.6 °F 72% 29.27 in 6.2 mi WSW 19.6 mph 31.1 mph N/A   Mostly Cloudy
2:50 PM 55.4 °F - 44.6 °F 67% 29.27 in 6.2 mi West 18.4 mph 29.9 mph N/A   Scattered Clouds
3:20 PM 53.6 °F - 44.6 °F 72% 29.27 in 6.2 mi West 20.7 mph - N/A   Scattered Clouds
3:50 PM 55.4 °F - 44.6 °F 67% 29.27 in 6.2 mi West 15.0 mph 26.5 mph N/A   Mostly Cloudy
4:20 PM 53.6 °F - 44.6 °F 72% 29.27 in 6.2 mi West 15.0 mph - N/A   Scattered Clouds
4:50 PM 55.4 °F - 42.8 °F 63% 29.27 in 6.2 mi West 16.1 mph - N/A   Scattered Clouds
5:20 PM 53.6 °F - 42.8 °F 67% 29.30 in 6.2 mi West 16.1 mph 27.6 mph N/A   Scattered Clouds
5:50 PM 51.8 °F - 42.8 °F 71% 29.30 in 6.2 mi West 17.3 mph - N/A   Scattered Clouds
6:20 PM 51.8 °F - 42.8 °F 71% 29.30 in 6.2 mi West 15.0 mph 27.6 mph N/A   Scattered Clouds
6:50 PM 50.0 °F - 42.8 °F 76% 29.30 in 6.2 mi WSW 17.3 mph - N/A   Partly Cloudy
7:20 PM 48.2 °F - 42.8 °F 82% 29.30 in 6.2 mi WSW 13.8 mph - N/A   Partly Cloudy
7:50 PM 48.2 °F - 42.8 °F 82% 29.30 in 6.2 mi WSW 15.0 mph - N/A   Partly Cloudy
8:20 PM 50.0 °F - 42.8 °F 76% 29.33 in 6.2 mi WSW 15.0 mph - N/A   Scattered Clouds
8:50 PM 50.0 °F - 42.8 °F 76% 29.33 in 6.2 mi WSW 18.4 mph - N/A   Scattered Clouds
9:20 PM 48.2 °F - 42.8 °F 82% 29.33 in 6.2 mi WSW 13.8 mph - N/A   Scattered Clouds
9:50 PM 48.2 °F - 42.8 °F 82% 29.33 in 6.2 mi WSW 15.0 mph - N/A   Scattered Clouds
10:20 PM 48.2 °F - 41.0 °F 76% 29.33 in - WSW 17.3 mph - N/A   Clear
10:50 PM 48.2 °F - 41.0 °F 76% 29.30 in 6.2 mi WSW 13.8 mph - N/A   Partly Cloudy
11:20 PM 48.2 °F - 42.8 °F 82% 29.30 in 6.2 mi WSW 19.6 mph - N/A   Mostly Cloudy
11:50 PM 48.2 °F - 42.8 °F 82% 29.30 in 6.2 mi WSW 18.4 mph - N/A   Mostly Cloudy